Weather History for KMCD - January, 2014

Change the Weather History Date:

Thursday, January 16, 2014

  Actual Average Record
Temperature  
Mean Temperature 20 °F -  
Max Temperature 23 °F 21 °F 40 °F (1988)
Min Temperature 16 °F 10 °F -12 °F (1982)
Degree Days  
Heating Degree Days 46    
Moisture  
Dew Point 17 °F    
Average Humidity 88    
Maximum Humidity 96    
Minimum Humidity 81    
Precipitation  
Precipitation 0.00 in - - ()
Sea Level Pressure  
Sea Level Pressure 29.56 in    
Wind  
Wind Speed 12 mph (SSE)    
Max Wind Speed 20 mph    
Max Gust Speed 31 mph    
Visibility 6 miles    
Events Snow    
Averages and records for this station are not official NWS values.
T = Trace of Precipitation, MM = Missing Value Source: NWS Daily Summary

Daily Weather History Graph

Daily Weather History Graph

Search for Another Location

Airport or City:

Trip Planner

Search our weather history database for the weather conditions in past years. The results will help you decide how hot, cold, wet, or windy it might be!

Date:

Astronomy

Jan. 16, 2014 Rise Set
Actual Time 8:15 AM EST 5:21 PM EST
Civil Twilight 7:42 AM EST 5:55 PM EST
Nautical Twilight 7:05 AM EST 6:31 PM EST
Astronomical Twilight 6:29 AM EST 7:07 PM EST
Moon 6:18 PM EST (1/16) 8:03 AM EST (1/16)
Length of Visible Light 10h 12m
Length of Day
9h 06m
Full, 100% of the Moon is Illuminated
Jan 16
Full
Jan 24
Last Quarter
Jan 30
New
Feb 6
First Quarter
Feb 14
Full

Hourly Weather History & Observations

Time (EST) Temp. Windchill Dew Point Humidity Pressure Visibility Wind Dir Wind Speed Gust Speed Precip Events Conditions
12:15 AM 16.7 °F 4.5 °F 13.1 °F 86% 29.70 in 10.0 mi South 10.4 mph 20.7 mph N/A   Overcast
12:35 AM 16.5 °F 3.0 °F 13.1 °F 86% 29.70 in 10.0 mi South 12.7 mph 19.6 mph N/A Snow Light Snow
12:56 AM 17.6 °F 5.7 °F 13.1 °F 83% 29.70 in 10.0 mi South 10.4 mph 21.9 mph N/A Snow Light Snow
1:15 AM 18.0 °F 5.4 °F 13.5 °F 83% 29.70 in 7.0 mi South 11.5 mph 23.0 mph N/A Snow Light Snow
1:35 AM 17.6 °F 4.3 °F 13.3 °F 83% 29.69 in 10.0 mi South 12.7 mph 18.4 mph N/A   Overcast
1:56 AM 17.8 °F 5.9 °F 13.1 °F 82% 29.68 in 10.0 mi South 10.4 mph 24.2 mph N/A   Overcast
2:15 AM 18.0 °F 6.1 °F 13.5 °F 83% 29.67 in 10.0 mi South 10.4 mph 20.7 mph N/A   Overcast
2:35 AM 18.0 °F 5.4 °F 13.5 °F 83% 29.65 in 10.0 mi South 11.5 mph 20.7 mph N/A   Overcast
2:56 AM 17.4 °F 4.7 °F 13.8 °F 86% 29.65 in 10.0 mi South 11.5 mph 19.6 mph N/A   Overcast
3:15 AM 18.5 °F 4.9 °F 14.0 °F 83% 29.65 in 10.0 mi South 13.8 mph 25.3 mph N/A   Overcast
3:35 AM 18.9 °F 6.5 °F 14.0 °F 81% 29.63 in 10.0 mi South 11.5 mph 18.4 mph N/A   Overcast
3:55 AM 18.5 °F 7.5 °F 14.5 °F 85% 29.62 in 4.0 mi South 9.2 mph 19.6 mph N/A Snow Light Snow
4:15 AM 17.6 °F 4.3 °F 14.4 °F 87% 29.61 in 3.0 mi SSE 12.7 mph 19.6 mph N/A Snow Light Snow
4:36 AM 17.6 °F 5.0 °F 14.5 °F 88% 29.60 in 7.0 mi SSE 11.5 mph 20.7 mph N/A Snow Light Snow
4:55 AM 18.0 °F 4.8 °F 15.1 °F 88% 29.59 in 2.0 mi SSE 12.7 mph 19.6 mph N/A Snow Light Snow
5:15 AM 18.1 °F 6.3 °F 15.6 °F 90% 29.57 in 2.5 mi SSE 10.4 mph 18.4 mph N/A Snow Light Snow
5:36 AM 18.3 °F 5.2 °F 16.2 °F 91% 29.57 in 2.5 mi SSE 12.7 mph 20.7 mph N/A Snow Light Snow
5:55 AM 18.5 °F 5.5 °F 16.5 °F 92% 29.56 in 2.5 mi SSE 12.7 mph 19.6 mph N/A Snow Light Snow
6:15 AM 18.5 °F 6.1 °F 16.7 °F 93% 29.56 in 3.0 mi SSE 11.5 mph 20.7 mph N/A Snow Light Snow
6:35 AM 18.5 °F 4.9 °F 16.7 °F 93% 29.55 in 4.0 mi SSE 13.8 mph 24.2 mph N/A Snow Light Snow
6:55 AM 18.5 °F 6.8 °F 16.5 °F 92% 29.55 in 10.0 mi SSE 10.4 mph 19.6 mph N/A Snow Light Snow
7:15 AM 18.5 °F 3.8 °F 16.2 °F 91% 29.54 in 10.0 mi SSE 16.1 mph 23.0 mph N/A   Overcast
7:35 AM 18.9 °F 4.3 °F 15.8 °F 88% 29.53 in 7.0 mi SSE 16.1 mph 24.2 mph N/A   Overcast
7:55 AM 18.7 °F 3.6 °F 15.8 °F 89% 29.52 in 7.0 mi SSE 17.3 mph 27.6 mph N/A   Overcast
8:15 AM 18.5 °F 5.5 °F 15.6 °F 89% 29.52 in 10.0 mi SSE 12.7 mph 26.5 mph N/A   Overcast
8:35 AM 18.5 °F 4.3 °F 14.9 °F 86% 29.52 in 4.0 mi SSE 15.0 mph 28.8 mph N/A   Overcast
8:55 AM 18.5 °F 2.4 °F 14.9 °F 86% 29.52 in 3.0 mi SSE 19.6 mph 29.9 mph N/A Snow Light Snow
9:15 AM 18.3 °F 2.2 °F 14.9 °F 86% 29.53 in 2.5 mi SSE 19.6 mph 27.6 mph N/A Snow Light Snow
9:35 AM 18.1 °F 2.9 °F 14.9 °F 87% 29.53 in 2.0 mi SSE 17.3 mph 31.1 mph N/A Snow Light Snow
9:55 AM 18.1 °F 2.4 °F 15.3 °F 88% 29.53 in 2.5 mi SSE 18.4 mph 31.1 mph N/A Snow Light Snow
10:15 AM 18.3 °F 3.1 °F 15.6 °F 89% 29.53 in 4.0 mi SSE 17.3 mph 25.3 mph N/A Snow Light Snow
10:35 AM 18.5 °F 3.3 °F 15.4 °F 88% 29.54 in 4.0 mi SSE 17.3 mph 27.6 mph N/A Snow Light Snow
10:55 AM 18.5 °F 3.3 °F 15.6 °F 89% 29.54 in 3.0 mi SSE 17.3 mph 25.3 mph N/A Snow Light Snow
11:15 AM 18.5 °F 3.8 °F 15.8 °F 89% 29.53 in 2.5 mi SSE 16.1 mph 26.5 mph N/A Snow Light Snow
11:35 AM 18.9 °F 5.3 °F 15.8 °F 88% 29.53 in 5.0 mi SSE 13.8 mph 26.5 mph N/A Snow Light Snow
11:55 AM 19.0 °F 5.6 °F 15.4 °F 86% 29.53 in 10.0 mi SSE 13.8 mph 24.2 mph N/A   Overcast
12:15 PM 19.6 °F 5.2 °F 15.4 °F 84% 29.52 in 10.0 mi SSE 16.1 mph 25.3 mph N/A   Overcast
12:36 PM 20.3 °F 5.7 °F 15.8 °F 83% 29.52 in 10.0 mi SSE 17.3 mph 24.2 mph N/A   Overcast
12:55 PM 20.8 °F 7.9 °F 16.0 °F 81% 29.52 in 10.0 mi SSE 13.8 mph 23.0 mph N/A   Overcast
1:15 PM 20.8 °F 8.4 °F 16.5 °F 83% 29.51 in 10.0 mi SSE 12.7 mph 24.2 mph N/A   Overcast
1:35 PM 21.2 °F 8.3 °F 16.7 °F 83% 29.51 in 10.0 mi South 13.8 mph 21.9 mph N/A   Overcast
1:55 PM 21.2 °F 8.3 °F 16.9 °F 83% 29.50 in 10.0 mi SSE 13.8 mph 24.2 mph N/A   Overcast
2:15 PM 21.2 °F 8.9 °F 17.1 °F 84% 29.50 in 10.0 mi SSE 12.7 mph 25.3 mph N/A   Overcast
2:35 PM 21.2 °F 8.9 °F 17.2 °F 85% 29.50 in 7.0 mi South 12.7 mph 20.7 mph N/A   Overcast
2:55 PM 21.7 °F 9.6 °F 17.6 °F 84% 29.50 in 10.0 mi SSE 12.7 mph 21.9 mph N/A   Overcast
3:15 PM 22.1 °F 12.0 °F 18.1 °F 85% 29.50 in 10.0 mi SSE 9.2 mph 18.4 mph N/A   Overcast
3:36 PM 22.3 °F 11.5 °F 18.5 °F 85% 29.51 in 10.0 mi SSE 10.4 mph 18.4 mph N/A   Overcast
3:55 PM 22.5 °F 14.1 °F 18.5 °F 85% 29.51 in 10.0 mi SE 6.9 mph - N/A   Overcast
4:15 PM 22.5 °F 11.7 °F 19.0 °F 87% 29.52 in 2.0 mi SSE 10.4 mph 17.3 mph N/A Snow Light Snow
4:35 PM 22.5 °F 11.1 °F 19.6 °F 89% 29.52 in 1.5 mi SSE 11.5 mph 18.4 mph N/A Snow Light Snow
4:55 PM 22.1 °F 13.7 °F 19.9 °F 91% 29.52 in 3.0 mi SSE 6.9 mph 18.4 mph N/A Snow Light Snow
5:15 PM 22.1 °F 11.3 °F 20.1 °F 92% 29.53 in 1.0 mi SSE 10.4 mph 18.4 mph N/A Snow Light Snow
5:35 PM 22.1 °F 11.3 °F 20.3 °F 93% 29.53 in 1.8 mi SE 10.4 mph 17.3 mph N/A Snow Light Snow
5:55 PM 22.1 °F 12.0 °F 20.3 °F 93% 29.54 in 2.5 mi SSE 9.2 mph 20.7 mph N/A Snow Light Snow
6:15 PM 22.3 °F 13.0 °F 20.5 °F 93% 29.54 in 3.0 mi SSE 8.1 mph 20.7 mph N/A Snow Light Snow
6:35 PM 22.1 °F 12.0 °F 20.3 °F 93% 29.55 in 3.0 mi SSE 9.2 mph 17.3 mph N/A Snow Light Snow
6:55 PM 22.3 °F 11.5 °F 20.3 °F 92% 29.55 in 4.0 mi SSE 10.4 mph 18.4 mph N/A Snow Light Snow
7:15 PM 22.3 °F 11.5 °F 20.3 °F 92% 29.55 in 5.0 mi SSE 10.4 mph 17.3 mph N/A Snow Light Snow
7:35 PM 22.1 °F 9.5 °F 20.3 °F 93% 29.55 in 3.0 mi SSE 13.8 mph 21.9 mph N/A Snow Light Snow
7:55 PM 22.1 °F 8.9 °F 20.3 °F 93% 29.55 in 2.5 mi SSE 15.0 mph 23.0 mph N/A Snow Light Snow
8:15 PM 22.1 °F 10.0 °F 20.3 °F 93% 29.56 in 4.0 mi SSE 12.7 mph 19.6 mph N/A Snow Light Snow
8:35 PM 22.1 °F 10.6 °F 20.3 °F 93% 29.56 in 7.0 mi SSE 11.5 mph 19.6 mph N/A Snow Light Snow
8:55 PM 22.1 °F 11.3 °F 20.5 °F 93% 29.56 in 2.5 mi South 10.4 mph 18.4 mph N/A Snow Light Snow
9:15 PM 22.1 °F 10.6 °F 20.8 °F 95% 29.56 in 2.5 mi SSE 11.5 mph 17.3 mph N/A Snow Light Snow
9:35 PM 22.1 °F 10.0 °F 21.2 °F 96% 29.57 in 2.0 mi SSE 12.7 mph 16.1 mph N/A Snow Light Snow
9:55 PM 22.1 °F 11.3 °F 21.2 °F 96% 29.57 in 3.0 mi SSE 10.4 mph 16.1 mph N/A Snow Light Snow
10:15 PM 22.5 °F 12.4 °F 21.6 °F 96% 29.57 in 4.0 mi SSE 9.2 mph 17.3 mph N/A Snow Light Snow
10:35 PM 22.5 °F 15.1 °F 21.2 °F 95% 29.57 in 7.0 mi SSE 5.8 mph - N/A   Overcast
10:55 PM 22.8 °F - 21.2 °F 93% 29.58 in 10.0 mi Calm Calm - N/A   Overcast
11:15 PM 23.0 °F 17.0 °F 21.2 °F 93% 29.58 in 10.0 mi SSE 4.6 mph - N/A   Overcast
11:35 PM 23.0 °F 17.0 °F 21.2 °F 93% 29.58 in 10.0 mi SE 4.6 mph - N/A   Overcast
11:55 PM 23.4 °F - 21.2 °F 91% 29.58 in 10.0 mi Calm Calm - N/A   Overcast